Weather History for Belize / Phillip Goldston Intl. Airport, Belize

Change the Weather History Date:

Friday, January 4, 2013

  Actual Average Record
Temperature  
Mean Temperature 78 °F -  
Max Temperature 83 °F - - ()
Min Temperature 72 °F - - ()
Cooling Degree Days 12    
Growing Degree Days 28 (Base 50)    
Moisture  
Dew Point 73 °F    
Average Humidity 81    
Maximum Humidity 94    
Minimum Humidity 70    
Precipitation  
Precipitation 0.31 in 0.17 in - ()
Sea Level Pressure  
Sea Level Pressure 30.03 in    
Wind  
Wind Speed 6 mph ()    
Max Wind Speed 13 mph    
Max Gust Speed -    
Visibility 7.9 miles    
Events Rain    
T = Trace of Precipitation, MM = Missing Value Source: Averaged Metar Reports

Daily Weather History Graph

Daily Weather History Graph

Search for Another Location

Airport:

Trip Planner

Search our weather history database for the weather conditions in past years. The results will help you decide how hot, cold, wet, or windy it might be!

Date:

Astronomy

Jan. 04, 2013 Rise Set
Actual Time 6:24 AM CST 5:32 PM CST
Civil Twilight 6:01 AM CST 5:55 PM CST
Nautical Twilight 5:34 AM CST 6:22 PM CST
Astronomical Twilight 5:07 AM CST 6:49 PM CST
Moon No Moon Rise 11:13 AM CST (1/4)
Length of Visible Light 11h 54m
Length of Day
11h 07m
Waning Gibbous, 55% of the Moon is Illuminated
Jan 4
Waning Gibbous
Jan 4
Last Quarter
Jan 11
New
Jan 18
First Quarter
Jan 26
Full

Hourly Weather History & Observations

Time (CST) Temp. Heat Index Dew Point Humidity Pressure Visibility Wind Dir Wind Speed Gust Speed Precip Events Conditions
12:00 AM 76 °F - 74 °F 91% 30.03 in 12 mi NNW 3.5 mph - -   Partly Cloudy
3:00 AM 76 °F - 74 °F 92% 30.00 in 12 mi NNE 4.6 mph - - Rain Light Rain Showers
5:00 AM 75.2 °F - 73.4 °F 94% 30.01 in 6.2 mi South 5.8 mph - N/A   Mostly Cloudy
6:00 AM 74 °F - 70 °F 85% 30.03 in 12 mi SE 3.5 mph - -   Partly Cloudy
6:00 AM 73.4 °F - 69.8 °F 88% 30.01 in 6.2 mi SE 3.5 mph - N/A   Mostly Cloudy
7:00 AM 73.4 °F - 71.6 °F 94% 30.04 in 6.2 mi Calm Calm - N/A   Mostly Cloudy
8:00 AM 78.8 °F - 75.2 °F 89% 30.06 in 6.2 mi NE 2.3 mph - N/A   Scattered Clouds
9:00 AM 82 °F - 74 °F 72% 30.09 in 12 mi East 5.8 mph - -   Partly Cloudy
9:00 AM 82.4 °F 89.5 °F 75.2 °F 79% 30.08 in 6.2 mi East 5.8 mph - N/A   Scattered Clouds
10:00 AM 82.4 °F 89.5 °F 75.2 °F 79% 30.07 in 6.2 mi East 10.4 mph - N/A   Scattered Clouds
11:00 AM 82.4 °F 89.5 °F 75.2 °F 79% 30.06 in 6.2 mi ENE 12.7 mph - N/A   Scattered Clouds
12:00 PM 82 °F - 74 °F 71% 30.05 in 12 mi ENE 10.4 mph - - Rain Light Rain Showers
12:00 PM 82.4 °F 88.2 °F 73.4 °F 74% 30.04 in 6.2 mi ENE 10.4 mph - N/A Rain Light Rain Showers
1:00 PM 80.6 °F 84.6 °F 71.6 °F 74% 30.02 in 6.2 mi East 9.2 mph - N/A   Mostly Cloudy
1:28 PM 80.6 °F 84.6 °F 71.6 °F 74% 30.01 in 2.5 mi East 6.9 mph - N/A Rain Rain Showers
1:40 PM 80.6 °F 84.6 °F 71.6 °F 74% 30.01 in 6.2 mi East 11.5 mph - N/A Rain Light Rain Showers
2:00 PM 78.8 °F - 75.2 °F 89% 30.00 in 6.2 mi East 8.1 mph - N/A   Mostly Cloudy
3:00 PM 80 °F - 72 °F 70% 30.01 in 11 mi ENE 8.1 mph - -   Partly Cloudy
3:00 PM 80.6 °F 84.6 °F 71.6 °F 74% 30.00 in 6.2 mi ENE 8.1 mph - N/A   Mostly Cloudy
4:00 PM 80.6 °F 85.4 °F 73.4 °F 79% 30.02 in 6.2 mi ENE 9.2 mph - N/A Rain Light Rain Showers
5:00 PM 80.6 °F 85.4 °F 73.4 °F 79% 30.02 in 6.2 mi ENE 8.1 mph - N/A   Mostly Cloudy
6:00 PM 80 °F - 73 °F 74% 30.04 in 11 mi ENE 8.1 mph - -   Partly Cloudy
6:00 PM 78.8 °F - 73.4 °F 83% 30.03 in 6.2 mi ENE 8.1 mph - N/A   Mostly Cloudy
9:00 PM 78 °F - 74 °F 82% 30.09 in 11 mi East 8.1 mph - - Rain Light Rain Showers